一网星座-0630星 (ONEWEB-0630)

导读

ONEWEB-0630是英国一网公司OneWeb第二代低轨宽带卫星星座的组网卫星,于2023年3月26日发射入轨。OneWeb是全球第二大卫星互联网运营商,ONEWEB-0630的成功发射,进一步完善了OneWeb的全球覆盖网络,助力为全球用户提供高速低时延的卫星互联网接入服务,同时第二代OneWeb卫星还将新增定位导航授时功能,可与全球导航系统竞争服务。

基本信息
目录编号:
56072
目录名称:
ONEWEB-0630
国际标识:
2023-043AC
轨道中心:
EARTH
卫星名称:
一网星座-0630星
卫星全名:
一网星座-0630星 (ONEWEB-0630)
卫星状态:
在轨 (已飞行1176 天)
发射日期:
2023-03-26 UTC
国别 :
英国 (GB)
星等 :
--
轨道信息
数据来源 国际轨道数据 AOE轨道数据
星历时间 2026-06-14T14:49:03+0800
6小时前
查看轨道信息
2026-06-14T04:00:00+0800
17小时前
查看轨道信息
半长轴 7579.913km 7579.907km
偏心率 0.0001787 0.0001544
轨道倾角 87.900° 87.902°
近地点辐角 104.124° 102.306°
升交点赤经 259.774° 259.863°
平近点角 256.009° 284.435°
近地点 1200.421km 1200.599km
远地点 1203.131km 1202.941km
周期 109.460分钟 109.460分钟
每日圈数 13.155473 13.155489
详细信息
平衡模式:
三轴稳定
覆盖范围:
全球
运营商:
一网卫星公司
运营商所在国:
英国
制造商(研发单位):
一网卫星公司
制造商所在国:
英国
使用方式:
暂无
卫星简介
OneWeb卫星网络由648颗重约125公斤的微型卫星组成,运行在1200公里的轨道上。 每颗卫星都能够提供至少每秒8千兆位的吞吐量,以使用其高吞吐量的Ku频段有效载荷为家庭和移动平台提供互联网接入。该卫星仍在工作。
2D轨道图
3D轨道图
轨道高度分析图
轨道倾角分析图
轨道综合分析图
查看轨道综合分析图